Location: Newark
(49.8969°N, 3.3422°E)
Time: 00:31:50
(UTC+00:00)

A-11 Canister half - Pass Details

Date: 01 February 2020
Orbit: 1517 x 1683 km, 47.2° (Epoch: 24 February)

Event Time Altitude Azimuth Distance (km) Brightness Sun altitude
Rises 19:40:03 0° 192° (SSW) 4,807 11.7 -29.0°
Reaches altitude 10° 19:44:04 10° 178° (S) 3,796 10.9 -29.6°
Enters shadow 19:46:31 16° 165° (SSE) 3,306 10.5 -30.0°
Maximum altitude 19:50:53 22° 132° (SE) 2,898 - -30.7°
Drops below altitude 10° 19:57:33 10° 86° (E) 3,721 - -31.8°
Sets 20:01:25 0° 72° (ENE) 4,689 - -32.4°
